Weather Roundup
Issued by NWS

Home | Current Version | Previous Version | Text Only | Print | Product List | Glossary On
Versions: 1 2 3 4 5 6 7 8 9 10 11 12 13 14 15 16 17 18 19 20 21 22 23 24 25 26 27 28 29 30 31 32 33 34 35 36 37 38 39 40 41 42 43 44 45 46 47 48 49 50
000
NZUS93 KARX 291559
HRRWXR

CURRENT HOURLY OBSERVATIONS ACROSS
MUCH OF THE UPPER MISSISSIPPI VALLEY
NATIONAL WEATHER SERVICE LA CROSSE WI
1100 AM CDT FRI APR 29 2016


...SOUTHEAST MINNESOTA...


CITY           SKY/WX    TMP DP  RH WIND       PRES   REMARKS
ROCHESTER      CLOUDY    43  38  82 NE13      30.13R
ROCHESTER/MAYO CLOUDY    43  37  79 N5        30.13S
WINONA         CLOUDY    46  37  71 NE7       30.14S
AUSTIN         CLOUDY    43  37  81 NE8G17    30.12S
ALBERT LEA     NOT AVBL
DODGE CENTER   PTSUNNY   43  43 100 NE10      30.12F
PRESTON        CLOUDY    40  36  84 NE10      30.13R WCI  34
OWATONNA       MOSUNNY   48  36  61 N13       30.13F
FARIBAULT      NOT AVBL
$$

...ELSEWHERE IN MINNESOTA...


CITY           SKY/WX    TMP DP  RH WIND       PRES   REMARKS
MINNEAPOLIS    MOSUNNY   49  33  54 N15G21    30.15F
INTNL FALLS    SUNNY     49  31  49 NE10      30.22S
DULUTH         MOSUNNY   48  29  47 CALM      30.19R
RED WING       SUNNY     48  37  66 NW7       30.12F
REDWOOD FALLS  CLOUDY    48  38  68 N9        30.15F
MANKATO        PTSUNNY   46  36  66 N13       30.15S
WORTHINGTON    CLOUDY    40  37  89 NE15      30.12S WCI  32
FAIRMONT       CLOUDY    43  32  65 NE15      30.12F
$$

...SOUTHWEST WISCONSIN...


CITY           SKY/WX    TMP DP  RH WIND       PRES   REMARKS
LA CROSSE      CLOUDY    48  36  63 N10       30.13S
PRAIRIE DU CHI NOT AVBL
BOSCOBEL       PTSUNNY   49  36  61 N8        30.12R
LONE ROCK      NOT AVBL
PLATTEVILLE    CLOUDY    46  40  81 N12       30.10R
FORT MC COY    NOT AVBL
MAUSTON-NEW LI CLOUDY    46  38  75 N8        30.10F
VIROQUA        CLOUDY    45  39  79 NE13      30.10F
WIS DELLS      NOT AVBL
$$

...ELSEWHERE IN WISCONSIN...


CITY           SKY/WX    TMP DP  RH WIND       PRES   REMARKS
MILWAUKEE      CLOUDY    41  36  82 NE9       30.14R
MADISON        CLOUDY    46  38  73 NE12      30.12R
GREEN BAY      MOSUNNY   49  36  61 NE12      30.14R
EAU CLAIRE     MOSUNNY   49  38  65 VRB6      30.14F
BLACK RVR FLS  PTSUNNY   49  36  60 NE9G16    30.13F
MEDFORD        CLOUDY    43  38  83 N6        30.14S
WAUSAU         CLOUDY    49  35  58 NE7       30.12F
WIS RAPIDS     CLOUDY    49  36  61 N12       30.12F
MARSHFIELD     MOSUNNY   49  37  63 VRB7      30.10F
RICE LAKE      SUNNY     47  32  54 N7        30.17F
$$

...NORTHEAST IOWA...


CITY           SKY/WX    TMP DP  RH WIND       PRES   REMARKS
WATERLOO       CLOUDY    46  37  71 NE9       30.13R
DUBUQUE        CLOUDY    45  39  79 NE6       30.11S
DECORAH        CLOUDY    45  37  76 N13G18    30.09F
MASON CITY     CLOUDY    44  39  82 NE17      30.13R
CHARLES CITY   NOT AVBL
OELWEIN        CLOUDY    45  39  81 NE12      30.12R
$$

...ELSEWHERE IN IOWA...


CITY           SKY/WX    TMP DP  RH WIND       PRES   REMARKS
DES MOINES     CLOUDY    47  40  76 E6        30.12S
IOWA CITY      CLOUDY    46  40  79 NE7       30.13F
FORT DODGE     CLOUDY    46  37  71 NE12G20   30.12R
MARSHALLTOWN   CLOUDY    46  39  76 NE9       30.12R
CEDAR RAPIDS   CLOUDY    46  41  82 NE8       30.10F
$$

...NORTHERN ILLINOIS...


CITY           SKY/WX    TMP DP  RH WIND       PRES   REMARKS
CHICAGO-OHARE  CLOUDY    44  39  82 NE12      30.10S
CHICAGO-MIDWAY CLOUDY    48  39  71 N10       30.09F
MOLINE         CLOUDY    48  40  73 NE3       30.12R
ROCKFORD       CLOUDY    46  38  73 NE8       30.14R
PEORIA         CLOUDY    51  43  74 N5        30.11R
$$

NOTE: "FAIR" INDICATES FEW OR NO CLOUDS BELOW 12,000 FEET WITH NO
SIGNIFICANT WEATHER AND/OR OBSTRUCTIONS TO VISIBILITY. WIND
SPEEDS ARE IN MILES-PER-HOUR.




USA.gov is the U.S. government's official web portal to all federal, state and local government web resources and services.